Regional Weather Roundup
Issued by NWS Little Rock, AR

Home | Current Version | Previous Version | Text Only | Print | Product List | Glossary Off
Versions: 1 2 3 4 5 6 7 8 9 10 11 12 13 14 15 16 17 18 19 20 21 22 23 24 25 26 27 28 29 30 31

000
ASUS44 KLZK 210305
RWRLZK

WEATHER ROUNDUP FOR ARKANSAS
NATIONAL WEATHER SERVICE LITTLE ROCK AR
1000 PM CDT THU JUL 20 2017

NOTE: "FAIR" INDICATES FEW OR NO CLOUDS BELOW 12,000 FEET WITH NO
SIGNIFICANT WEATHER AND/OR OBSTRUCTIONS TO VISIBILITY.

ARZ001-003-010-029-210400-
NORTHWEST ARKANSAS

CITY           SKY/WX    TMP DP  RH WIND       PRES   REMARKS
FAYETTEVILLE   PTCLDY    77  76  96 S6        30.06S
FORT SMITH     MOCLDY    87  76  69 SE5       30.00R HX  97
HARRISON       CLEAR     82  71  69 S3        30.07R HX  86
BENTONVILLE    CLEAR     82  70  65 CALM      30.06S HX  86
ROGERS         CLEAR     83  71  67 S6        30.06R HX  87
SILOAM SPGS    CLEAR     81  70  69 S5        30.05R
HIGHFILL       CLEAR     81  72  74 S3        30.05S HX  85
$$

ARZ004-005-016-210400-
NORTH CENTRAL ARKANSAS

CITY           SKY/WX    TMP DP  RH WIND       PRES   REMARKS
BATESVILLE     CLEAR     86  75  70 S3        30.03R HX  95
FLIPPIN        CLEAR     82  72  69 CALM      30.02R HX  87
MTN HOME       CLEAR     81  75  82 S3        30.04  HX  87
$$

ARZ040-041-210400-
WEST CENTRAL ARKANSAS

CITY           SKY/WX    TMP DP  RH WIND       PRES   REMARKS
MENA           CLEAR     82  81  94 CALM      30.06R HX  95
MOUNT IDA      CLEAR     80  77  90 CALM      30.03R HX  87
$$

ARZ009-017-025-026-028-210400-
NORTHEAST ARKANSAS

CITY           SKY/WX    TMP DP  RH WIND       PRES   REMARKS
CORNING        LGT RAIN  82  81  94 S6        30.00  HX  95
JONESBORO      CLEAR     85  78  80 S7        30.01R HX  96
WALNUT RIDGE   CLEAR     84  75  74 S8        30.00S HX  92
BLYTHEVILLE    CLEAR     84  78  82 S5        30.01R HX  95
$$

ARZ022-023-033-042-044-210400-
CENTRAL ARKANSAS

CITY           SKY/WX    TMP DP  RH WIND       PRES   REMARKS
LITTLE ROCK    CLEAR     84  79  85 S5        30.02R HX  96
N LITTLE ROCK    N/A     83  76  80 CALM      30.01R HX  91
JACKSONVILLE   CLEAR     83  80  89 CALM      30.02R HX  96
CONWAY           N/A     84  79  84 S6        30.00R HX  96
SEARCY         CLEAR     82  80  94 CALM      30.03S HX  94
HOT SPRINGS    CLEAR     85  76  74 CALM      30.03R HX  94
RUSSELLVILLE   CLEAR     81  78  91 CALM      30.01R HX  89
$$

ARZ036-210400-
EAST ARKANSAS

CITY           SKY/WX    TMP DP  RH WIND       PRES   REMARKS
WEST MEMPHIS   CLEAR     81  78  91 CALM      30.01S HX  89
$$

ARZ050-053-066-070-073-210400-
SOUTHWEST ARKANSAS

CITY           SKY/WX    TMP DP  RH WIND       PRES   REMARKS
ARKADELPHIA    FAIR      81  80  97 CALM      30.03R HX  91
CAMDEN         CLEAR     82  77  83 CALM      30.02R HX  91
TEXARKANA      CLEAR     83  76  79 SE3       30.02R HX  91
EL DORADO      CLEAR     82  79  90 CALM      30.03R HX  92
DE QUEEN       CLEAR     81  81 100 CALM      30.00R HX  92
$$

ARZ056-057-069-210400-
SOUTHEAST ARKANSAS

CITY           SKY/WX    TMP DP  RH WIND       PRES   REMARKS
PINE BLUFF     CLEAR     83  79  88 CALM      30.03R HX  94
STUTTGART      CLEAR     88  66  48 SE6       30.04R HX  90
MONTICELLO     CLEAR     83  79  88 CALM      30.03R HX  94

$$






USA.gov is the U.S. government's official web portal to all federal, state and local government web resources and services.